This is the latest recevied weather packets stored in our database for station/object K1TTC. If no packets are shown the sender has not sent any weather packets the latest 10 day(s).
| Time | Temp. | Humidity | Pressure | Rain* | Wind** | Luminosity | Snow |
|---|---|---|---|---|---|---|---|
| 1778006000 | 28.33° C | 29% | 1007.4 hPa | 0 mm | - | 861 W/m² | - |
| 1778005437 | 28.33° C | 28% | 1007.5 hPa | 0 mm | - | 183 W/m² | - |
| 1778004800 | 28.33° C | 30% | 1008 hPa | 0 mm | - | 856 W/m² | - |
| 1778004202 | 28.33° C | 30% | 1008 hPa | 0 mm | - | 823 W/m² | - |
| 1778003600 | 28.33° C | 30% | 1008 hPa | 0 mm | - | 847 W/m² | - |
| 1778003000 | 28.33° C | 32% | 1008.2 hPa | 0 mm | - | 858 W/m² | - |
| 1778002410 | 27.78° C | 31% | 1008.4 hPa | 0 mm | - | 870 W/m² | - |
| 1778001800 | 27.78° C | 33% | 1008.5 hPa | 0 mm | - | 889 W/m² | - |
| 1778001214 | 27.78° C | 33% | 1008.6 hPa | 0 mm | - | 896 W/m² | - |
| 1778000600 | 27.78° C | 33% | 1008.8 hPa | 0 mm | - | 904 W/m² | - |
| 1778000000 | 27.22° C | 34% | 1009 hPa | 0 mm | - | 904 W/m² | - |
| 1777999400 | 26.67° C | 35% | 1009.1 hPa | 0 mm | - | 889 W/m² | - |
| 1777998922 | 26.67° C | 36% | 1009.3 hPa | 0 mm | - | 893 W/m² | - |
| 1777998199 | 26.11° C | 36% | 1009.5 hPa | 0 mm | - | 893 W/m² | - |
| 1777997717 | 26.11° C | 37% | 1009.8 hPa | 0 mm | - | 881 W/m² | - |
| 1777996996 | 25.56° C | 40% | 1010 hPa | 0 mm | - | 932 W/m² | - |
| 1777996514 | 24.44° C | 39% | 1010.3 hPa | 0 mm | - | 977 W/m² | - |
| 1777995796 | 24.44° C | 40% | 1010.4 hPa | 0 mm | - | 865 W/m² | - |
| 1777995196 | 23.89° C | 42% | 1010.5 hPa | 0 mm | - | 858 W/m² | - |
| 1777994595 | 23.89° C | 43% | 1010.5 hPa | 0 mm | - | 1121 W/m² | - |
| 1777994115 | 23.33° C | 45% | 1010.5 hPa | 0 mm | - | 886 W/m² | - |
| 1777993397 | 22.78° C | 47% | 1010.3 hPa | 0 mm | - | 828 W/m² | - |
| 1777992794 | 22.22° C | 46% | 1010.5 hPa | 0 mm | - | 814 W/m² | - |
| 1777992194 | 21.67° C | 48% | 1010.7 hPa | 0 mm | - | 812 W/m² | - |
| 1777991711 | 20.56° C | 49% | 1010.9 hPa | 0 mm | - | 856 W/m² | - |
* Rain latest hour (hover to see other rain measurements)
** Current wind speed in m/s (hover to see current wind gust speed)